Location: Miles
(41.4492°N, 81.6087°W)
Time: 16:03:13
(UTC+00:00)

A-11 Canister half - Pass Details

Date: 16 September 2024
Orbit: 1515 x 1684 km, 47.2° (Epoch: 11 October)

Event Time Altitude Azimuth Distance (km) Brightness Sun altitude
Rises 00:17:41 0° 241° (WSW) 4,740 12.4 -8.8°
Reaches altitude 10° 00:20:46 10° 241° (WSW) 3,738 11.8 -9.4°
Maximum altitude 00:30:13 90° 155° (SSE) 1,530 9.0 -11.1°
Drops below altitude 10° 00:39:30 10° 65° (ENE) 3,677 10.5 -12.8°
Enters shadow 00:41:08 - 65° (ENE) 4,208 10.8 -13.1°
